Вернуться в каталог

ONEWEB-0236

АктивенСвязьPO
NORAD 48797·PAYLOAD·🇬🇧 United Kingdom

Запущен May 28, 2021 с Vostochny Cosmodrome

Loading…

Ближайшие Пролёты (ближайшие 24 часа)

TLE

СвежийSource: CelesTrak SupGP

Эпоха: Sep 14, 2026, 15:23 UTC

1 48797C 21045AG  26257.64113843 -.00002174  00000+0 -57807-2 0  2570
2 48797  87.8992 241.3667 0001937  87.3156  16.4268 13.15552328    12

Отслеживайте ONEWEB-0236 в реальном времени с AllMySat

Download on the App Store